Tracking 29892 objects as of 21-Nov-2024
HD Live streaming from Space Station
objects crossing your sky now

STARLINK-11331

Track STARLINK-11331 now!
10-day predictions
STARLINK-11331 is classified as:


NORAD ID: 61537
Int'l Code: 2024-184F
Perigee: 346.7 km
Apogee: 346.9 km
Inclination: 53.2 °
Period: 91.3 minutes
Semi major axis: 6717 km
RCS: Unknown
Launch date: October 15, 2024
Source: United States (US)
Launch site: AIR FORCE WESTERN TEST RANGE (AFWTR)
Your satellite tracking list
Your tracking list is empty




NASA's NSSDC Master Catalog

Two Line Element Set (TLE):
1 61537U 24184F   24324.65261941  .00003807  00000-0  27216-4 0  9990
2 61537  53.1556  61.9760 0000147 142.8789 217.2242 15.76745810  5750
Source of the keplerian elements: AFSPC